Weather History for KSBP - December, 2013

Change the Weather History Date:

Sunday, December 1, 2013

  Actual Average Record
Temperature  
Mean Temperature 63 °F -  
Max Temperature 82 °F 66 °F 82 °F (2013)
Min Temperature 44 °F 43 °F 32 °F (2004)
Degree Days  
Heating Degree Days 2    
Growing Degree Days 13 (Base 50)    
Moisture  
Dew Point 36 °F    
Average Humidity 44    
Maximum Humidity 71    
Minimum Humidity 20    
Precipitation  
Precipitation 0.00 in - - ()
Sea Level Pressure  
Sea Level Pressure 30.19 in    
Wind  
Wind Speed 3 mph (North)    
Max Wind Speed 14 mph    
Max Gust Speed 20 mph    
Visibility 10 miles    
Events      
Averages and records for this station are not official NWS values.
T = Trace of Precipitation, MM = Missing Value Source: NWS Daily Summary

Daily Weather History Graph

Daily Weather History Graph

Search for Another Location

Airport or City:

Trip Planner

Search our weather history database for the weather conditions in past years. The results will help you decide how hot, cold, wet, or windy it might be!

Date:

Astronomy

Dec. 01, 2013 Rise Set
Actual Time 6:53 AM PST 4:50 PM PST
Civil Twilight 6:25 AM PST 5:18 PM PST
Nautical Twilight 5:53 AM PST 5:49 PM PST
Astronomical Twilight 5:23 AM PST 6:20 PM PST
Moon 5:19 AM PST (12/1) 4:02 PM PST (12/1)
Length of Visible Light 10h 52m
Length of Day
9h 57m
Waning Crescent, 2% of the Moon is Illuminated
Dec 1
Waning Crescent
Dec 2
New
Dec 9
First Quarter
Dec 17
Full
Dec 25
Last Quarter

Hourly Weather History & Observations

Time (PST) Temp. Windchill Dew Point Humidity Pressure Visibility Wind Dir Wind Speed Gust Speed Precip Events Conditions
12:56 AM 46.9 °F - 37.0 °F 68% 30.20 in 10.0 mi Calm Calm - N/A   Clear
1:56 AM 46.0 °F - 35.1 °F 66% 30.19 in 10.0 mi Calm Calm - N/A   Clear
2:56 AM 44.1 °F - 35.1 °F 71% 30.20 in 10.0 mi North - - N/A   Clear
3:56 AM 44.1 °F - 35.1 °F 71% 30.21 in 10.0 mi Calm Calm - N/A   Clear
4:56 AM 45.0 °F - 35.1 °F 68% 30.21 in 10.0 mi Calm Calm - N/A   Clear
5:56 AM 51.1 °F - 36.0 °F 56% 30.22 in 10.0 mi Calm Calm - N/A   Clear
6:56 AM 46.0 °F 43.9 °F 36.0 °F 68% 30.23 in 10.0 mi East 4.6 mph - N/A   Clear
7:56 AM 51.1 °F - 37.9 °F 61% 30.25 in 10.0 mi ESE 4.6 mph - N/A   Clear
8:56 AM 60.1 °F - 37.9 °F 44% 30.25 in 10.0 mi Calm Calm - N/A   Clear
9:56 AM 66.9 °F - 39.0 °F 36% 30.26 in 10.0 mi Calm Calm - N/A   Clear
10:56 AM 75.0 °F - 36.0 °F 24% 30.23 in 10.0 mi NW 3.5 mph - N/A   Clear
11:56 AM 78.1 °F - 36.0 °F 22% 30.19 in 10.0 mi Variable 4.6 mph - N/A   Clear
12:56 PM 80.1 °F - 36.0 °F 20% 30.16 in 10.0 mi NNW 8.1 mph - N/A   Clear
1:56 PM 82.0 °F - 39.0 °F 22% 30.14 in 10.0 mi NW 11.5 mph - N/A   Clear
2:56 PM 80.1 °F - 37.0 °F 21% 30.13 in 10.0 mi North 8.1 mph - N/A   Clear
3:56 PM 77.0 °F - 37.9 °F 24% 30.14 in 10.0 mi NNW 11.5 mph - N/A   Clear
4:56 PM 72.0 °F - 37.9 °F 29% 30.14 in 10.0 mi NNW 13.8 mph 19.6 mph N/A   Clear
5:56 PM 66.9 °F - 36.0 °F 32% 30.15 in 10.0 mi Calm Calm - N/A   Clear
6:56 PM 61.0 °F - 36.0 °F 39% 30.16 in 10.0 mi ESE 4.6 mph - N/A   Clear
7:56 PM 62.1 °F - 35.1 °F 37% 30.17 in 10.0 mi ESE 6.9 mph - N/A   Clear
8:56 PM 63.0 °F - 34.0 °F 34% 30.17 in 10.0 mi SSW 3.5 mph - N/A   Clear
9:56 PM 59.0 °F - 34.0 °F 39% 30.16 in 10.0 mi Calm Calm - N/A   Clear
10:56 PM 55.9 °F - 34.0 °F 44% 30.17 in 10.0 mi Calm Calm - N/A   Clear
11:56 PM 52.0 °F - 33.1 °F 49% 30.15 in 10.0 mi Calm Calm - N/A   Clear